星链-4146 (STARLINK-4146 )

导读

STARLINK-4146是美国太空探索技术公司星链计划中的一颗卫星,于2022年7月24日发射入轨,归属美国。它是星链低轨互联网星座组网卫星之一,旨在为全球范围提供高速低延迟的宽带互联网服务,运行在近地轨道,助力星链星座完成全球覆盖布局。

Basic Information
目录编号:
53294
目录名称:
STARLINK-4146
国际标识:
2022-086BE
轨道中心:
EARTH
卫星名称:
星链-4146
卫星全名:
星链-4146 (STARLINK-4146 )
卫星状态:
在轨 (已飞行1503 天)
发射日期:
2022-07-24 UTC
国别 :
美国 (US)
星等 :
--
Orbit Information
数据来源 国际轨道数据 AOE轨道数据
星历时间 2026-09-03T21:38:12+0800
18小时前
查看轨道信息
2026-08-28T23:00:00+0800
6天前
查看轨道信息
半长轴 6837.864km 6837.948km
偏心率 0.0001292 0.0001353
轨道倾角 53.160° 53.162°
近地点辐角 92.317° 91.119°
升交点赤经 85.859° 113.688°
平近点角 267.798° 159.919°
近地点 458.843km 458.885km
远地点 460.611km 460.737km
周期 93.787分钟 93.788分钟
每日圈数 15.35402 15.353738
Detailed Information
固有亮度:
5
最大亮度:
2.5
卫星平台:
Starlink v1.5
覆盖范围:
全球
运营商:
太空探索技术公司
运营商所在国:
美国
制造商(研发单位):
太空探索技术公司
制造商所在国:
美国
使用方式:
暂无
Satellite Introduction
星链(Starlink)计划是由太空探索技术公司(SpaceX)提出的一个巨型低轨卫星互联网星座项目,计划在2019年至2024年间在太空搭建由约1.2万颗卫星组成的“星链”网络,其中1584颗将部署在地球上空550千米处的近地轨道,并从2020年开始工作。该卫星仍在工作。
2D Orbit Map
3D Orbit Map
Orbit Altitude Analysis Chart
Orbit Inclination Analysis Chart
Orbit Comprehensive Analysis Chart
View Comprehensive Chart
Conjunction Data List
Event ID Objects TCA Miss Dist (km) Collision Risk Probability Collision Risk Index (CRI) Action
CDM_260827-222305-329406-487523
REAL (64875)
2026-08-27T
22:23:08+0000
1.431 km
极远距离
7.823058E-6 低风险 0.53
CDM_260904-130905-329406-422322
2026-09-04T
13:09:27+0000
2.551 km
极远距离
1.493096E-6 低风险 0.38
CDM_260905-110305-329406-336821
2026-09-05T
11:03:43+0000
2.544 km
极远距离
1.47923E-6 低风险 0.38
CDM_260903-055905-329406-615422
2026-09-03T
05:59:13+0000
2.665 km
极远距离
1.335338E-6 低风险 0.38
CDM_260902-234405-329406-172321
2026-09-02T
23:44:33+0000
2.930 km
极远距离
1.166954E-6 低风险 0.36
CDM_260903-193105-329406-638921
2026-09-03T
19:31:30+0000
2.712 km
极远距离
5.747368E-7 极低风险 0.3
CDM_260904-220405-325005-329421
2026-09-04T
22:04:37+0000
2.956 km
极远距离
4.726903E-7 极低风险 0.28
CDM_260904-180805-329406-628121
2026-09-04T
18:08:33+0000
2.890 km
极远距离
2.808022E-7 极低风险 0.24